www.pogodaiklimat.ru

Погода и климат >> Архив погоды >> Аргентина >> Villa Dolores


ПОГОДА в Villa Dolores

  • Прогноз погоды в Villa Dolores
  • Монитор погоды в Villa Dolores
  • Климат города

АРХИВ ПОГОДЫ в Villa Dolores

Время (UTC), дата Ветер
(напр.,м/с)
 
Видим.   Явления Облачность Т
(С)
Тd
(С)
f
(%)
Тe
(С)
Тes
(С)
Комфортность P
(гПа)
Po
(гПа)
Тmin
(С)
Tmax
(С)
R
(мм)
R24
(мм)
S
(см)
18 17.09 З 1 30 км 8/1 1500 м
[Cu hum Cs]
+23.4 +9.0 40 +25 +36 комфорт 1010.3 945.6
21 17.09 ЮЗ 1 30 км 3/0
[Cs]
+25.0 +8.9 36 +26 +28 жарко 1008.4 943.7
00 18.09 З 2 30 км ясно +18.6 +10.7 60 +20 +20 1009.0 944.1 +16.0 +25.6
03 18.09 ЮЗ 2 30 км 6/0
[Cs]
+16.2 +9.1 63 +16 +16 1009.0 944.5
06 18.09 СВ 2 30 км 3/0
[Cs]
+15.4 +7.2 58 +16 +16 1007.1 942.9
09 18.09 С 3 30 км ясно +16.1 +6.9 54 +16 +16 1005.5 941.6
12 18.09 СЗ 11 20 км мгла ясно +19.2 +10.0 55 +19 +19 1006.3 942.0 +14.2 +19.2
15 18.09 СЗ 14 20 км пыльный позёмок ясно +23.0 +9.9 43 +25 +25 комфорт 1005.4 941.4
18 18.09 З 3 30 км 1/1 1500 м
[Cu hum]
+27.6 +8.9 31 +28 +37 жарко 1000.4 937.0
21 18.09 З 2 30 км 1/1 1500 м
[Cu hum]
+28.2 +8.3 29 +28 +30 жарко 998.7 935.6
00 19.09 Ю 9 30 км ясно +17.4 +3.2 39 +16 +16 1003.9 939.6 +17.4 +28.6
03 19.09 ЮВ 3 30 км 1/1 1200 м
[Sc]
+13.2 +4.1 54 +12 +12 1007.9 943.6
06 19.09 ЮВ 4 30 км 1/0
[Ci]
+11.2 +3.8 60 +9 +9 1008.5 944.1
09 19.09 В 2 30 км ясно +9.2 +2.9 65 +8 +8 1008.8 944.2
12 19.09 В 3 20 км дым 3/0
[Ci fib]
+13.2 +0.9 43 +12 +14 1011.7 946.4 +7.0 +17.4
15 19.09 СЗ 3 30 км 9/0
[Cs]
+20.6 +0.7 26 +21 +32 комфорт 1013.4 948.2
18 19.09 С 3 30 км 8/0
[Cs]
+23.0 +2.1 25 +22 +33 комфорт 1011.8 946.8
21 19.09 ЮЗ 1 30 км 8/0
[Cs]
+22.6 +4.0 30 +23 +25 комфорт 1011.5 946.2
00 20.09 З 3 30 км 4/0
[Cs]
+16.2 +8.6 61 +16 +16 1013.2 947.6 +13.2 +23.0
03 20.09 штиль 0 30 км 1/0
[Cs]
+14.9 +4.8 51 +15 +15 1014.0 949.0
06 20.09 штиль 0 30 км 3/0
[Cs]
+13.6 +3.5 50 +13 +13 1014.1 949.2
09 20.09 В 4 30 км 3/3 1200 м
[Sc]
+10.3 +4.0 65 +8 +8 1014.2 948.9
12 20.09 штиль 0 30 км 1/0
[Ci]
+14.4 +5.9 57 +14 +18 1016.2 950.5 +8.8 +16.2
15 20.09 З 2 30 км 5/0
[Ci]
+21.0 +1.4 27 +22 +36 комфорт 1014.0 949.0
18 20.09 С 10 30 км ясно +26.2 +0.8 19 +24 +25 комфорт 1010.5 946.1
21 20.09 С 6 30 км 1/0
[Ci fib]
+26.0 +1.8 21 +25 +25 комфорт 1009.2 944.6
00 21.09 СЗ 2 30 км 4/0
[Cs]
+19.8 +4.6 37 +21 +21 комфорт 1011.1 946.1 +14.2 +27.2
03 21.09 ЮВ 2 30 км 1/0
[Cs]
+13.8 +4.6 54 +14 +14 1012.3 947.3
06 21.09 ЮЗ 2 30 км 1/0
[Cs]
+15.4 +6.7 56 +16 +16 1012.2 947.3
09 21.09 ЮВ 2 30 км ясно +12.7 +6.7 67 +12 +12 1011.3 946.8
12 21.09 В 4 15 км мгла 6/0
[Cs]
+19.3 +8.1 48 +20 +22 1011.2 946.8 +11.4 +20.2
15 21.09 З 2 15 км мгла 5/0
[Cs]
+25.5 +9.9 37 +26 +40 жарко 1010.5 946.1
18 21.09 З 4 15 км мгла 1/0
[Cs]
+29.7 +9.7 29 +30 +38 жарко 1005.6 942.1
21 21.09 СЗ 5 15 км мгла ясно +34.1 +11.4 25 +34 +35 очень
жарко
1002.9 939.8
00 22.09 СВ 3 30 км ясно +24.6 +9.8 39 +25 +25 комфорт 1003.8 940.2 +19.1 +34.1
03 22.09 штиль 0 30 км ясно +23.4 +14.5 57 +27 +27 душно 1004.2 941.2
06 22.09 С 5 30 км 1/0
[Cs]
+26.0 +14.7 50 +29 +29 душно 1002.5 940.2
09 22.09 С 2 30 км 1/0
[Cs]
+24.4 +16.7 62 +28 +28 душно 1001.9 940.0
12 22.09 СЗ 5 30 км 1/0
[Cs]
+26.4 +17.4 58 +31 +32 душно 1003.1 940.4 +19.0 +26.6
15 22.09 З 5 30 км 1/0
[Cs]
+31.0 +17.2 44 +35 +42 очень
душно
1001.7 939.4
18 22.09 З 2 30 км ясно +35.3 +10.9 23 +35 +48 очень
жарко
998.0 936.6
21 22.09 ЮЗ 3 30 км ясно +35.8 +5.3 15 +33 +35 жарко 996.8 935.4
00 23.09 З 2 30 км ясно +24.5 +5.7 30 +24 +24 комфорт 999.1 936.6 +24.5 +36.6
03 23.09 В 2 30 км ясно +22.1 +11.3 50 +24 +24 комфорт 1001.7 939.3
06 23.09 В 4 30 км ясно +19.4 +11.1 59 +21 +21 комфорт 1000.6 938.4
09 23.09 В 3 30 км ясно +16.5 +7.2 54 +16 +16 1001.6 939.2
12 23.09 В 3 20 км мгла 1/1 1500 м
[Cu hum]
+20.0 +6.6 42 +21 +24 комфорт 1004.0 940.5 +15.7 +24.5
15 23.09 СЗ 3 20 км мгла 1/0
[Ci fib]
+26.8 +11.1 37 +28 +41 жарко 1004.9 941.8
18 23.09 ЮЗ 2 30 км ясно +31.6 +4.8 18 +29 +43 жарко 1004.1 941.3
21 23.09 штиль 0 30 км ясно +30.9 +3.7 18 +29 +32 жарко 1003.5 940.4
00 24.09 СВ 2 30 км ясно +21.5 +6.4 37 +22 +22 комфорт 1006.3 942.4 +20.0 +31.7
03 24.09 СВ 1 30 км ясно +17.8 +4.6 42 +19 +19 1010.3 946.5
06 24.09 штиль 0 30 км ясно +12.4 +3.8 56 +12 +12 1009.7 945.8
09 24.09 В 2 30 км 3/0
[Ci fib]
+12.7 +2.8 51 +13 +13 1011.2 947.3
12 24.09 В 3 20 км дым 9/5 1200 м
[Sc Ac As]
+13.8 +4.6 54 +13 +14 1015.7 950.5 +11.4 +21.6
15 24.09 В 8 20 км мгла 4/4 1350 м
[Sc]
+23.0 +2.8 27 +23 +24 комфорт 1015.4 950.9

 

Местоположение метеостанции Villa Dolores (Аргентина): широта -31.95 долгота -65.13 высота над уровнем моря 569 м.

В архиве по умолчанию представлена погода в Villa Dolores за последнюю неделю. Архивные данные за месяц целиком и за предыдущие месяцы, начиная с января 2011 года, Вы можете получить, выбрав интересующий диапазон дат из раскрывающегося списка и нажав кнопку "Ввод!".


*Определитесь, кто Вы:
робот инопланетянин человек

Внимание! Время в таблицах - всемирное. Для получения местного времени необходимо прибавить поправку, которая в Villa Dolores равна -3 ч.

Смотрите также архив погоды в соседних городах и на ближайших метеорологических станциях:

Погода в Cordoba (Аргентина) (113 км)
Погода в Pilar (Аргентина) (122 км)
Погода в Rio Cuarto (Аргентина) (150 км)
Погода в San Luis (Аргентина) (185 км)
Погода в Villa Reynolds (Аргентина) (199 км)
Погода в Chamical (Аргентина) (208 км)
Погода в Villa de Maria del Rio Seco (Аргентина) (267 км)
Погода в Marcos Juarez (Аргентина) (292 км)
Погода в Laboulaye (Аргентина) (293 км)
Погода в San Juan (Аргентина) (316 км)

Пояснения к столбцам:

Ветер - указаны скорость ветра в м/с - средняя за 10 мин, порывы в срок и между сроками (в фигурных скобках) и направление, откуда дует ветер: С - северный, СВ - северо-восточный, В - восточный, ЮВ - юго-восточный, Ю - южный, ЮЗ - юго-западный, З - западный, СЗ - северо-западный.
Видимость - горизонтальная дальность видимости в метрах или километрах. При видимости от 1 до 10 км при отсутствии осадков обычно наблюдается дымка, при ухудшении видимости до 1 км и менее - туман. В сухую погоду видимость может ухудшаться дымом, пылью или мглою.
Явления - указаны атмосферные явления, наблюдавшиеся в срок или в последний час перед сроком; фигурными скобками обозначены явления, наблюдавшиеся между сроками (за 1-3 часа до срока); квадратными скобками обозначены град или гололедные отложения с указанием их диаметра в мм.
Облачность - указаны через наклонную черту общая и нижняя облачность в баллах и высота нижней границы облаков в метрах; квадратными скобками обозначены формы облаков: Ci - перистые, Cs - перисто-слоистые, Cc - перисто-кучевые, Ac - высококучевые, As - высокослоистые, Sc - слоисто-кучевые, Ns - слоисто-дождевые, Cu - кучевые, Cb - кучево-дождевые. Подробнее классификацию облаков см. в Атласе облаков (PDF).
T - Температура воздуха - температура, измеренная на высоте 2 м над землей.
Td - Температура точки росы - температура, при понижении до которой содержащийся в воздухе водяной пар достигнет насыщения.
f - Относительная влажность воздуха - влажноcть воздуха, измеренная на высоте 2 м над землей.
Te - Эффективная температура - температура, которую ощущает одетый по сезону человек в тени. Характеристика душности погоды. При расчете учитывается влияние влажности воздуха и скорости ветра на теплоощущения человека.
Tes - Эффективная температура на солнце - температура, которую ощущает человек, с поправкой на солнечный нагрев. Характеристика знойности погоды. Зависит от высоты солнца над горизонтом, облачности и скорости ветра. Ночью, в пасмурную погоду, а также при ветре 12 м/с и более поправка равна нулю.
P - Атмосферное давление - приведенное к уровню моря атмосферное давление.
Po - Атмосферное давление - измеренное на уровне метеостанции атмосферное давление.
Tmin - Минимальная температура - минимум температуры воздуха на высоте 2 м над землей.
Tmax - Максимальная температура - максимум температуры воздуха на высоте 2 м над землей.
R - Количество осадков - Количество выпавших осадков за период времени, мм. При наведении курсора мыши на число - период времени, за который выпало указанное количество осадков.
R24 - Количество осадков - Количество выпавших осадков за 24 часа, мм.
S - Снежный покров - Высота снежного покрова, см. При наведении курсора мыши на число - состояние снежного покрова и степень покрытия местности в баллах.